Weather in Usun-Kyuyel

Russia / Sakha (Yakutia) Republic     66°20′41″N   150°30′42″E
temp.,
°C
wind,
m/s
gust,
m/s
humid.,
%
clouds,
%
prec.,
mm/h
press.,
hPa
HPBL,
m
28 january, thu
thu2823:00−34nw4698100 0.8 1032414
02:00−35wnw5797100 0.3 1031236
05:00−35wnw5796100 0.4 1029233
08:00−35wnw4796100 0.1 1029196
11:00−34wnw4696100 0.1 1028199
14:00−33wnw3494100 0.0 1027214
17:00−33wnw3596100 0.1 1028180
20:00−33wnw4696100 0.1 1027202
29 january, fri
fri2923:00−32wnw4797100 0.1 1028184
02:00−31wnw6897100 0.1 1027223
05:00−31wnw6897100 0.3 1028218
08:00−31wnw6897100 0.2 1029221
11:00−30wnw5897100 0.4 1030216
14:00−30wnw5797100 0.2 1030235
17:00−30wnw5797100 0.4 1032211
20:00−30wnw5797100 0.2 1033193
30 january, sat
sat3023:00−29wnw4698100 0.4 1034175
02:00−29wnw4697100 0.2 1034154
05:00−29wnw4697100 0.3 1035183
08:00−29nw4697100 0.1 1036192
11:00−30nw4597100 0.1 1036111
14:00−31nw4597100 0.0 1035116
17:00−33nw5797100 0.1 1035102
20:00−33nw5797100 0.0 1036119
31 january, sun
sun3123:00−35nnw5797100 0.1 103790
02:00−36nnw4697100 0.0 103794
05:00−37nnw5796100 0.0 1037102
08:00−37nw5797100 0.0 103779
11:00−37nw5997100 0.0 1037131
14:00−35nw71096100 0.0 1035259
17:00−36nw81296100 0.1 1035209
20:00−35nw91496100 0.0 1034304
1 february, mon
mon123:00−35nnw91494100 0.1 1032408
02:00−34nnw101492100 0.0 1030500
05:00−33nnw101497100 0.7 1028541
08:00−32nnw101497100 1.6 1026574
11:00−32nnw101397100 2.6 1024624
14:00−30nw101397100 0.8 1022612
17:00−30nw101497100 1.6 1021485
20:00−31wnw111595100 0.3 1021340